Home > Weather > Mildura > Past weeks

Flag for Australia Past Weather in Mildura, Victoria, Australia — Yesterday and Last 2 Weeks

Now
52 °F

Cool.


Feels Like: 50 °F
Forecast: 47 / 60 °F
Wind: 6 mph from West

Location: Mildura Airport

Current Time: Jul 2, 2016 at 3:12:45 AM

Latest Report: Jul 2, 2016 at 2:00 AM


Visibility: N/A

Pressure: 30.36 "Hg

Humidity: 84%

Dew Point: 47 °F

Location of MilduraLocation

Past Weather in Mildura — Graph

°F

Mildura Temperature Yesterday

Maximum temperature yesterday: 56 °F (at 2:00 PM)
Minimum temperature yesterday: 38 °F (at 7:00 AM)
Average temperature yesterday: 48 °F

High & Low Weather Summary for the Past Weeks

 TemperatureHumidityPressure
High63 °F (Jun 30, 1:00 PM)100% (Jun 17, 5:00 AM)30.38 "Hg (Jun 17, 5:00 AM)
Low33 °F (Jun 25, 8:00 AM)43% (Jun 23, 4:00 PM)29.59 "Hg (Jun 23, 5:00 PM)
Average49 °F83%30.02 "Hg
* Reported Jun 17 1:00 AM — Jul 2 1:00 AM, Mildura, Weather by CustomWeather, © 2016

Note: Actual official high and low records may vary slightly from our data, if they occured in-between our weather recording intervals... More about our weather records

Advertising

Mildura Weather History for the Previous 24 Hours

Scroll right to see more
 ConditionsComfort  
Time TempWeatherWind HumidityBarometerVisibility
1:00 AM
Sat, Jul 2
51 °FCool.5 mph84%30.36 "HgN/A
12:00 AM51 °FOvercast.6 mph83%30.36 "HgN/A
11:00 PM
Fri, Jul 1
52 °FCool.6 mph79%30.36 "HgN/A
10:00 PM52 °FCool.6 mph78%30.36 "HgN/A
9:00 PM53 °FOvercast.6 mph75%30.35 "HgN/A
8:00 PM52 °FCool.5 mph79%30.33 "HgN/A
7:00 PM53 °FCool.3 mph79%30.32 "HgN/A
6:00 PM53 °FOvercast.3 mph75%30.30 "HgN/A
5:00 PM55 °FCool.5 mph69%30.29 "HgN/A
4:00 PM55 °FCool.8 mph66%30.27 "HgN/A
3:00 PM56 °FOvercast.8 mph64%30.27 "HgN/A
2:00 PM56 °FCool.8 mph63%30.27 "HgN/A
1:00 PM55 °FCool.8 mph66%30.28 "HgN/A
12:00 PM53 °FOvercast.8 mph72%30.30 "HgN/A
11:00 AM52 °FCool.8 mph75%30.31 "HgN/A
10:00 AM48 °FCool.9 mph84%30.29 "HgN/A
9:00 AM43 °FQuite cool.8 mph93%30.26 "HgN/A
8:00 AM39 °FChilly.7 mph97%30.24 "HgN/A
7:00 AM38 °FChilly.7 mph96%30.20 "HgN/A
6:00 AM39 °FChilly.7 mph96%30.18 "HgN/A
5:00 AM39 °FChilly.6 mph94%30.16 "HgN/A
4:00 AM42 °FQuite cool.8 mph91%30.14 "HgN/A
3:00 AM42 °FQuite cool.8 mph92%30.13 "HgN/A
Weather by CustomWeather, © 2016

See weather overviewHow to use our weather pages